Weather History for Florala, AL

Change the Weather History Date:

Thursday, October 4, 2012

  Actual Average (KCEW) Record (KCEW)
Temperature  
Mean Temperature 72 °F -  
Max Temperature 82 °F 85 °F 93 °F (2013)
Min Temperature 62 °F 58 °F 45 °F (1980)
Cooling Degree Days 7    
Growing Degree Days 22 (Base 50)    
Moisture  
Dew Point 63 °F    
Average Humidity 84    
Maximum Humidity 100    
Minimum Humidity 51    
Precipitation  
Precipitation 0.00 in - - ()
Sea Level Pressure  
Sea Level Pressure 30.21 in    
Wind  
Wind Speed 3 mph (NNE)    
Max Wind Speed 8 mph    
Max Gust Speed -    
Visibility 7 miles    
Events Fog    
Averages and records for this station are not official NWS values.
T = Trace of Precipitation, MM = Missing Value Source: NWS Daily Summary

Daily Weather History Graph

Daily Weather History Graph

Search for Another Location

Airport:

Trip Planner

Search our weather history database for the weather conditions in past years. The results will help you decide how hot, cold, wet, or windy it might be!

Date:

Astronomy

Oct. 04, 2012 Rise Set
Actual Time 6:41 AM CDT 6:26 PM CDT
Civil Twilight 6:16 AM CDT 6:50 PM CDT
Nautical Twilight 5:48 AM CDT 7:18 PM CDT
Astronomical Twilight 5:20 AM CDT 7:46 PM CDT
Moon 9:19 PM CDT (10/4) 10:40 AM CDT (10/4)
Length of Visible Light 12h 33m
Length of Day
11h 44m
Waning Gibbous, 82% of the Moon is Illuminated
Oct 4
Waning Gibbous
Oct 8
Last Quarter
Oct 15
New
Oct 21
First Quarter
Oct 29
Full

Hourly Weather History & Observations

Time (CDT) Temp. Heat Index Dew Point Humidity Pressure Visibility Wind Dir Wind Speed Gust Speed Precip Events Conditions
12:58 AM 64.0 °F - 60.1 °F 87% 30.17 in 10.0 mi NNE 3.5 mph - N/A   Clear
1:29 AM 62.6 °F - 60.8 °F 94% 30.18 in 10.0 mi NNE 4.6 mph - N/A   Scattered Clouds
1:34 AM 62.6 °F - 60.8 °F 94% 30.18 in 10.0 mi Calm Calm - N/A   Mostly Cloudy
1:41 AM 62.6 °F - 60.8 °F 94% 30.19 in 10.0 mi Calm Calm - N/A   Mostly Cloudy
1:58 AM 64.0 °F - 61.0 °F 90% 30.17 in 10.0 mi NE 3.5 mph - N/A   Overcast
2:44 AM 64.4 °F - 60.8 °F 88% 30.19 in 10.0 mi NNE 3.5 mph - N/A   Mostly Cloudy
2:58 AM 63.0 °F - 61.0 °F 93% 30.18 in 10.0 mi Calm Calm - N/A   Mostly Cloudy
3:04 AM 62.6 °F - 60.8 °F 94% 30.19 in 10.0 mi Calm Calm - N/A   Partly Cloudy
3:34 AM 62.6 °F - 60.8 °F 94% 30.19 in 9.0 mi North 3.5 mph - N/A   Scattered Clouds
3:42 AM 62.6 °F - 60.8 °F 94% 30.20 in 9.0 mi NNE 3.5 mph - N/A   Mostly Cloudy
3:54 AM 64.4 °F - 62.6 °F 94% 30.20 in 1.5 mi Calm Calm - N/A   Overcast
3:58 AM 63.0 °F - 62.1 °F 97% 30.19 in 0.8 mi Calm Calm - N/A   Overcast
4:58 AM 64.9 °F - 64.0 °F 97% 30.20 in 0.2 mi ENE 3.5 mph - N/A Fog Fog
5:58 AM 64.9 °F - 64.0 °F 97% 30.22 in 0.2 mi NE 3.5 mph - N/A Fog Fog
6:58 AM 64.0 °F - 63.0 °F 96% 30.24 in 0.2 mi NE 3.5 mph - N/A Fog Fog
7:58 AM 64.9 °F - 64.0 °F 97% 30.24 in 0.2 mi North 3.5 mph - N/A Fog Fog
8:48 AM 66.2 °F - 64.4 °F 94% 30.26 in 1.0 mi NNE 3.5 mph - N/A   Overcast
8:52 AM 66.2 °F - 64.4 °F 94% 30.26 in 0.8 mi North 4.6 mph - N/A   Overcast
8:58 AM 66.0 °F - 64.9 °F 96% 30.26 in 0.8 mi NNE 4.6 mph - N/A   Overcast
9:11 AM 66.2 °F - 64.4 °F 94% 30.26 in 0.5 mi NE 3.5 mph - N/A Fog Fog
9:21 AM 66.2 °F - 64.4 °F 94% 30.26 in 1.5 mi NE 3.5 mph - N/A   Overcast
9:40 AM 66.2 °F - 66.2 °F 100% 30.27 in 3.0 mi Calm Calm - N/A   Overcast
9:58 AM 68.0 °F - 66.0 °F 93% 30.25 in 5.0 mi NNE 3.5 mph - N/A   Overcast
10:41 AM 75.2 °F - 66.2 °F 73% 30.25 in 10.0 mi NE 6.9 mph - N/A   Scattered Clouds
10:58 AM 75.9 °F - 66.9 °F 74% 30.24 in 10.0 mi NE 8.1 mph - N/A   Clear
11:58 AM 81.0 °F 82.5 °F 64.0 °F 56% 30.23 in 10.0 mi NNE 8.1 mph - N/A   Clear
12:58 PM 82.9 °F 84.0 °F 63.0 °F 51% 30.21 in 10.0 mi NE 8.1 mph - N/A   Clear
1:58 PM 82.0 °F 83.4 °F 64.0 °F 54% 30.20 in - NE 4.6 mph - N/A   Clear
2:58 PM 82.9 °F 84.0 °F 63.0 °F 51% 30.19 in - NE 6.9 mph - N/A   Clear
3:58 PM 82.9 °F 84.4 °F 64.0 °F 53% 30.17 in 10.0 mi North 6.9 mph - N/A   Clear
4:58 PM 82.0 °F 83.8 °F 64.9 °F 56% 30.16 in 10.0 mi NE 5.8 mph - N/A   Partly Cloudy
5:58 PM 77.0 °F - 66.0 °F 69% 30.16 in 10.0 mi North 3.5 mph - N/A   Clear
6:58 PM 72.0 °F - 66.0 °F 81% 30.17 in 10.0 mi Calm Calm - N/A   Clear
7:58 PM 70.0 °F - 64.9 °F 84% 30.18 in 10.0 mi North 3.5 mph - N/A   Clear
8:58 PM 72.0 °F - 63.0 °F 73% 30.19 in 10.0 mi NE 3.5 mph - N/A   Clear
9:58 PM 70.0 °F - 64.0 °F 81% 30.21 in 10.0 mi Calm Calm - N/A   Partly Cloudy
10:58 PM 70.0 °F - 64.0 °F 81% 30.19 in 10.0 mi East 3.5 mph - N/A   Clear
11:58 PM 66.9 °F - 64.0 °F 90% 30.18 in 10.0 mi Calm Calm - N/A   Clear